Overview Statistics Trail Chart Weather Telemetry Raw packets
 

This is the latest recevied weather packets stored in our database for station/object K8RRT. If no packets are shown the sender has not sent any weather packets the latest 10 day(s).

<< 79 80 81 82 83 84 85 >>
Time Temp. Humidity Pressure Rain* Wind** Luminosity Snow
1788036232 32.22° C 57% 1015.7 hPa 0 mm - 516 W/m² -
1788035927 30.56° C 60% 1015.6 hPa 0 mm - 514 W/m² -
1788035626 31.11° C 60% 1015.8 hPa 0 mm - 528 W/m² -
1788035321 31.11° C 59% 1016 hPa 0 mm - 528 W/m² -
1788035017 31.11° C 59% 1016.1 hPa 0 mm - 546 W/m² -
1788034713 30.56° C 62% 1016.1 hPa 0 mm - 553 W/m² -
1788034409 31.67° C 59% 1016.3 hPa 0 mm - 617 W/m² -
1788034105 31.67° C 59% 1016.1 hPa 0 mm - 592 W/m² -
1788033803 32.22° C 58% 1016.3 hPa 0 mm - 612 W/m² -
1788033498 31.67° C 59% 1016.2 hPa 0 mm - 530 W/m² -
1788033193 32.22° C 59% 1016.3 hPa 0 mm - 603 W/m² -
1788032889 30.56° C 60% 1016.4 hPa 0 mm - 627 W/m² -
1788032588 30.56° C 60% 1016.5 hPa 0 mm - 645 W/m² -
1788032284 31.11° C 59% 1016.5 hPa 0 mm - 498 W/m² -
1788031979 31.11° C 59% 1016.6 hPa 0 mm - 695 W/m² -
1788031674 30.56° C 60% 1016.4 hPa 0 mm - 684 W/m² -
1788031374 30.56° C 59% 1016.4 hPa 0 mm - 703 W/m² -
1788031069 30.56° C 60% 1016.3 hPa 0 mm - 696 W/m² -
1788030763 31.11° C 59% 1016.7 hPa 0 mm - 721 W/m² -
1788030462 30.56° C 63% 1016.5 hPa 0 mm - 683 W/m² -
1788030157 30.56° C 60% 1016.8 hPa 0 mm - 688 W/m² -
1788029857 30° C 60% 1016.8 hPa 0 mm - 695 W/m² -
1788029553 30.56° C 60% 1016.8 hPa 0 mm - 693 W/m² -
1788029252 31.11° C 61% 1016.8 hPa 0 mm - 724 W/m² -
1788028947 30.56° C 61% 1017 hPa 0 mm - 730 W/m² -

* Rain latest hour (hover to see other rain measurements)
** Current wind speed in m/s (hover to see current wind gust speed)